GW1815 Weather Reports


time (UTC)temp
C
wind
direction
speed
KPH
gust
KPH
rain 1hr
cm
rain 24hr
cm
rain mn
cm
humidity
%
barometer
mb
20260504021534 11 0 0.0 0.0 0.00 0.00 0.00 70 1004.8
20260504020037 12 0 0.0 0.0 0.00 0.00 0.00 67 1004.7
20260504014537 13 0 0.0 0.0 0.00 0.00 0.00 64 1004.6
20260504013031 14 0 0.0 0.0 0.00 0.00 0.00 59 1004.6
20260504011532 15 0 0.0 0.0 0.00 0.00 0.00 55 1004.4
20260504010029 16 0 0.0 3.2 0.00 0.00 0.00 52 1004.3
20260504004534 17 0 0.0 4.8 0.00 0.00 0.00 49 1004.2
20260504003030 18 209 1.6 9.7 0.00 0.00 0.00 48 1004.2
20260504001529 18 0 0.0 11.3 0.00 0.00 0.00 46 1004.2
20260504000032 19 213 3.2 17.7 0.00 0.00 0.00 45 1004.2
20260503234530 20 189 6.4 17.7 0.00 0.00 0.00 42 1004.3
20260503233029 20 227 8.0 24.1 0.00 0.00 0.00 41 1004.3
20260503231529 20 183 9.7 27.4 0.00 0.00 0.00 43 1004.3
20260503230030 20 186 14.5 29.0 0.00 0.00 0.00 41 1004.4
20260503224530 20 219 8.0 30.6 0.00 0.00 0.00 42 1004.5
20260503223030 20 178 14.5 37.0 0.00 0.00 0.00 42 1004.7
20260503221535 20 208 16.1 43.5 0.00 0.00 0.00 43 1004.7
20260503220035 20 121 6.4 33.8 0.00 0.00 0.00 45 1004.8
20260503214540 19 225 17.7 45.1 0.00 0.00 0.00 42 1004.8
20260503213032 20 225 14.5 48.3 0.00 0.00 0.00 42 1005.1
20260503211548 20 208 12.9 43.5 0.00 0.00 0.00 44 1005.3
20260503210035 19 281 14.5 43.5 0.00 0.00 0.00 43 1005.5
20260503204537 19 182 12.9 46.7 0.00 0.00 0.00 44 1005.7
20260503203043 18 198 19.3 45.1 0.00 0.00 0.00 46 1006.2
20260503201535 18 190 24.1 62.8 0.00 0.00 0.00 46 1006.5
20260503200046 18 187 17.7 53.1 0.00 0.00 0.00 46 1006.9
20260503194530 18 203 20.9 46.7 0.00 0.00 0.00 46 1007.1
20260503193034 17 194 16.1 43.5 0.00 0.00 0.00 46 1007.2
20260503191537 16 221 19.3 40.2 0.00 0.00 0.00 50 1007.3
20260503190030 16 182 12.9 37.0 0.00 0.00 0.00 52 1007.4
20260503184541 16 188 22.5 45.1 0.00 0.00 0.00 51 1007.5
20260503183032 16 192 17.7 53.1 0.00 0.00 0.00 51 1007.7
20260503181538 16 194 20.9 48.3 0.00 0.00 0.00 51 1008.0
20260503180047 16 159 17.7 46.7 0.00 0.00 0.00 57 1008.6
20260503174543 15 167 19.3 48.3 0.00 0.00 0.00 58 1009.0
20260503173041 12 173 20.9 46.7 0.00 0.00 0.00 62 1009.3
20260503171534 12 166 20.9 43.5 0.00 0.00 0.00 62 1009.9
20260503081539 6 0 1.6 14.5 0.00 0.00 0.00 65 1012.7
20260503071536 4 0 1.6 8.0 0.00 0.00 0.00 70 1013.1
20260503054531 2 192 3.2 11.3 0.00 0.00 0.00 79 1013.8
20260503053032 2 0 1.6 11.3 0.00 0.00 0.00 80 1013.9
20260503051537 2 198 0.0 6.4 0.00 0.00 0.00 81 1014.0
20260503050033 2 0 0.0 4.8 0.00 0.00 0.00 81 1014.2
20260503044533 2 194 0.0 8.0 0.00 0.00 0.00 81 1014.1
20260503043032 2 152 0.0 3.2 0.00 0.00 0.00 82 1014.2
20260503041534 2 207 1.6 8.0 0.00 0.00 0.00 83 1014.2
20260503040030 2 167 1.6 8.0 0.00 0.00 0.00 84 1014.4
20260503034533 2 200 1.6 8.0 0.00 0.00 0.00 85 1014.5
20260503033037 2 178 1.6 11.3 0.00 0.00 0.00 84 1014.6
20260503031535 3 175 0.0 6.4 0.00 0.00 0.00 83 1014.7
20260503030048 3 0 0.0 3.2 0.00 0.00 0.00 82 1014.8
20260503024535 3 0 0.0 0.0 0.00 0.00 0.00 81 1014.9
20260503023033 3 0 0.0 0.0 0.00 0.00 0.00 80 1014.8